Jugendreisen

Hotel Caribbean Bay

Direkt zu den Terminen & Preisen
Super Frühbucherrabatt bis 31.03.2020

Infos
Strand: 200 m
Disco: 1800 m
Shopping: 400 m
Gepäckraum
Dusche
W-LAN gg. Gebühr
Safe gg. Gebühr
Pool
Gratis Klimaanlage
Balkon
SAT-TV
All inclusive
 
Hotelbilder
Die Lage
Am Ortseingang Arenals liegt das 3 Sterne All inclusive Hotel Caribbean Bay. Unser Newcomer wurde 2013 komplett renoviert und besticht unter anderem durch seine perfekte Strandlage und dem guten Preis-Leistungsverhältnis. Nur ca. 200m trennen euch vom azurblauen Mittelmeer. Urlaubsfeeling pur!
Eure Zimmer
Die modernen und freundlichen Zimmer des Caribbean Bay sind alle mit Dusche/WC und Föhn sowie SAT-TV ausgestattet. Die Klimaanlage sorgt für eine angenehme Raumtemperatur. Auf dem Balkon / Terrasse könnt ihr entspannt mit euren Freunden zusammen sitzen.

Damit eure Wertsachen sicher verstaut sind, könnt ihr an der Rezeption einen Safe mieten.
Ausstattung
Neben den komfortablen und modernen 224 Zimmern ist das Highlight des Hotels in luftiger Höhe zu finden. Einer von zwei Hotelpools befindet sich auf der oberen Hotelterrasse und bietet euch einen exklusiven Blick auf die Dächer von Palma und den Strand der Playa de Palma. (Sonnenliegen und Schirme inklusive!)
Eure Verpflegung
Hier seid ihr bestens versorgt! Im Reisepreis enthalten ist das umfangreiche Buffet zum Frühstück, Mittag-/ und Abendessen im hoteleigenen Restaurant.
Für den Hunger zwischendurch gibt es Snacks bis 18 Uhr und an der Pool Bar und Lobby Bar neben dem Eingangsbereich könnt ihr von 10:30 bis 23:00 Uhr den Getränkeservice in vollen Zügen auskosten.
Abflughäfen
Abflughäfen
Basel
Berlin-Schönefeld
Berlin-Tegel
Bremen
Dortmund
Dresden
Düsseldorf
Erfurt
Frankfurt/Main
Hamburg
Hannover
Innsbruck
Karlsruhe/Baden-Baden
Köln/Bonn
Leipzig/Halle
Luxemburg
München
Münster/Osnabrück
Nürnberg
Paderborn/Lippstadt
Salzburg
Stuttgart
Wien
Zürich
Termine & Preise
Reiseart:
Flug
Tage bitte wählen:
Termin Preis
Preise für 2021
April
30.04 - 04.05.2021 479  449 € Expressangebot holen
Mai
02.05 - 06.05.2021 479  449 € Expressangebot holen
03.05 - 07.05.2021 479  449 € Expressangebot holen
04.05 - 08.05.2021 479  449 € Expressangebot holen
05.05 - 09.05.2021 479  449 € Expressangebot holen
06.05 - 10.05.2021 479  449 € Expressangebot holen
07.05 - 11.05.2021 479  449 € Expressangebot holen
09.05 - 13.05.2021 479  449 € Expressangebot holen
10.05 - 14.05.2021 479  449 € Expressangebot holen
11.05 - 15.05.2021 479  449 € Expressangebot holen
12.05 - 16.05.2021 479  449 € Expressangebot holen
13.05 - 17.05.2021 479  449 € Expressangebot holen
14.05 - 18.05.2021 479  449 € Expressangebot holen
16.05 - 20.05.2021 479  449 € Expressangebot holen
17.05 - 21.05.2021 479  449 € Expressangebot holen
18.05 - 22.05.2021 479  449 € Expressangebot holen
19.05 - 23.05.2021 479  449 € Expressangebot holen
20.05 - 24.05.2021 479  449 € Expressangebot holen
21.05 - 25.05.2021 479  449 € Expressangebot holen
23.05 - 27.05.2021 549  519 € Expressangebot holen
24.05 - 28.05.2021 549  519 € Expressangebot holen
25.05 - 29.05.2021 549  519 € Expressangebot holen
26.05 - 30.05.2021 569  529 € Expressangebot holen
27.05 - 31.05.2021 579  539 € Expressangebot holen
28.05 - 01.06.2021 589  549 € Expressangebot holen
30.05 - 03.06.2021 599  559 € Expressangebot holen
31.05 - 04.06.2021 599  559 € Expressangebot holen
Juni
01.06 - 05.06.2021 529  489 € Expressangebot holen
02.06 - 06.06.2021 529  489 € Expressangebot holen
03.06 - 07.06.2021 529  489 € Expressangebot holen
04.06 - 08.06.2021 529  489 € Expressangebot holen
06.06 - 10.06.2021 529  489 € Expressangebot holen
07.06 - 11.06.2021 529  489 € Expressangebot holen
08.06 - 12.06.2021 529  489 € Expressangebot holen
09.06 - 13.06.2021 529  489 € Expressangebot holen
10.06 - 14.06.2021 529  489 € Expressangebot holen
11.06 - 15.06.2021 529  489 € Expressangebot holen
13.06 - 17.06.2021 529  489 € Expressangebot holen
14.06 - 18.06.2021 529  489 € Expressangebot holen
15.06 - 19.06.2021 529  489 € Expressangebot holen
16.06 - 20.06.2021 529  489 € Expressangebot holen
17.06 - 21.06.2021 529  489 € Expressangebot holen
18.06 - 22.06.2021 529  489 € Expressangebot holen
20.06 - 24.06.2021 559  509 € Expressangebot holen
21.06 - 25.06.2021 569  519 € Expressangebot holen
22.06 - 26.06.2021 589  529 € Expressangebot holen
23.06 - 27.06.2021 589  529 € Expressangebot holen
24.06 - 28.06.2021 589  529 € Expressangebot holen
25.06 - 29.06.2021 589  529 € Expressangebot holen
27.06 - 01.07.2021 589  529 € Expressangebot holen
28.06 - 02.07.2021 589  529 € Expressangebot holen
29.06 - 03.07.2021 589  529 € Expressangebot holen
30.06 - 04.07.2021 589  529 € Expressangebot holen
Juli
01.07 - 05.07.2021 589  529 € Expressangebot holen
02.07 - 06.07.2021 589  529 € Expressangebot holen
04.07 - 08.07.2021 589  529 € Expressangebot holen
05.07 - 09.07.2021 589  529 € Expressangebot holen
06.07 - 10.07.2021 589  529 € Expressangebot holen
07.07 - 11.07.2021 589  529 € Expressangebot holen
08.07 - 12.07.2021 589  529 € Expressangebot holen
09.07 - 13.07.2021 589  529 € Expressangebot holen
11.07 - 15.07.2021 589  529 € Expressangebot holen
12.07 - 16.07.2021 589  529 € Expressangebot holen
13.07 - 17.07.2021 599  549 € Expressangebot holen
14.07 - 18.07.2021 619  559 € Expressangebot holen
15.07 - 19.07.2021 629  569 € Expressangebot holen
16.07 - 20.07.2021 649  589 € Expressangebot holen
18.07 - 22.07.2021 649  589 € Expressangebot holen
19.07 - 23.07.2021 649  589 € Expressangebot holen
20.07 - 24.07.2021 649  589 € Expressangebot holen
21.07 - 25.07.2021 649  589 € Expressangebot holen
22.07 - 26.07.2021 649  589 € Expressangebot holen
23.07 - 27.07.2021 649  589 € Expressangebot holen
25.07 - 29.07.2021 649  589 € Expressangebot holen
26.07 - 30.07.2021 649  589 € Expressangebot holen
27.07 - 31.07.2021 649  589 € Expressangebot holen
28.07 - 01.08.2021 649  589 € Expressangebot holen
29.07 - 02.08.2021 649  589 € Expressangebot holen
30.07 - 03.08.2021 649  589 € Expressangebot holen
August
01.08 - 05.08.2021 649  589 € Expressangebot holen
02.08 - 06.08.2021 649  589 € Expressangebot holen
03.08 - 07.08.2021 649  589 € Expressangebot holen
04.08 - 08.08.2021 649  589 € Expressangebot holen
05.08 - 09.08.2021 649  589 € Expressangebot holen
06.08 - 10.08.2021 649  589 € Expressangebot holen
08.08 - 12.08.2021 649  589 € Expressangebot holen
09.08 - 13.08.2021 649  589 € Expressangebot holen
10.08 - 14.08.2021 649  589 € Expressangebot holen
11.08 - 15.08.2021 649  589 € Expressangebot holen
12.08 - 16.08.2021 649  589 € Expressangebot holen
13.08 - 17.08.2021 649  589 € Expressangebot holen
15.08 - 19.08.2021 649  589 € Expressangebot holen
16.08 - 20.08.2021 649  589 € Expressangebot holen
17.08 - 21.08.2021 649  589 € Expressangebot holen
18.08 - 22.08.2021 649  589 € Expressangebot holen
19.08 - 23.08.2021 649  589 € Expressangebot holen
20.08 - 24.08.2021 649  589 € Expressangebot holen
22.08 - 26.08.2021 619  559 € Expressangebot holen
23.08 - 27.08.2021 599  539 € Expressangebot holen
24.08 - 28.08.2021 579  529 € Expressangebot holen
25.08 - 29.08.2021 579  529 € Expressangebot holen
26.08 - 30.08.2021 579  529 € Expressangebot holen
27.08 - 31.08.2021 579  529 € Expressangebot holen
29.08 - 02.09.2021 579  529 € Expressangebot holen
30.08 - 03.09.2021 579  529 € Expressangebot holen
31.08 - 04.09.2021 579  529 € Expressangebot holen
September
01.09 - 05.09.2021 579  529 € Expressangebot holen
02.09 - 06.09.2021 579  529 € Expressangebot holen
03.09 - 07.09.2021 579  529 € Expressangebot holen
05.09 - 09.09.2021 579  529 € Expressangebot holen
06.09 - 10.09.2021 579  529 € Expressangebot holen
07.09 - 11.09.2021 579  529 € Expressangebot holen
Alle Flugpreise exklusive Transfer, außer bei Goldstrand und Sonnenstrand.
Termin Preis
Preise für 2021
April
30.04 - 05.05.2021 519  479 € Expressangebot holen
Mai
02.05 - 07.05.2021 519  479 € Expressangebot holen
03.05 - 08.05.2021 519  479 € Expressangebot holen
04.05 - 09.05.2021 519  479 € Expressangebot holen
05.05 - 10.05.2021 519  479 € Expressangebot holen
06.05 - 11.05.2021 519  479 € Expressangebot holen
07.05 - 12.05.2021 519  479 € Expressangebot holen
09.05 - 14.05.2021 519  479 € Expressangebot holen
10.05 - 15.05.2021 519  479 € Expressangebot holen
11.05 - 16.05.2021 519  479 € Expressangebot holen
12.05 - 17.05.2021 519  479 € Expressangebot holen
13.05 - 18.05.2021 519  479 € Expressangebot holen
14.05 - 19.05.2021 519  479 € Expressangebot holen
16.05 - 21.05.2021 519  479 € Expressangebot holen
17.05 - 22.05.2021 519  479 € Expressangebot holen
18.05 - 23.05.2021 519  479 € Expressangebot holen
19.05 - 24.05.2021 519  479 € Expressangebot holen
20.05 - 25.05.2021 519  479 € Expressangebot holen
21.05 - 26.05.2021 519  479 € Expressangebot holen
23.05 - 28.05.2021 589  549 € Expressangebot holen
24.05 - 29.05.2021 589  549 € Expressangebot holen
25.05 - 30.05.2021 599  559 € Expressangebot holen
26.05 - 31.05.2021 619  569 € Expressangebot holen
27.05 - 01.06.2021 629  579 € Expressangebot holen
28.05 - 02.06.2021 639  589 € Expressangebot holen
30.05 - 04.06.2021 659  599 € Expressangebot holen
31.05 - 05.06.2021 659  599 € Expressangebot holen
Juni
01.06 - 06.06.2021 579  529 € Expressangebot holen
02.06 - 07.06.2021 579  529 € Expressangebot holen
03.06 - 08.06.2021 579  529 € Expressangebot holen
04.06 - 09.06.2021 579  529 € Expressangebot holen
06.06 - 11.06.2021 579  529 € Expressangebot holen
07.06 - 12.06.2021 579  529 € Expressangebot holen
08.06 - 13.06.2021 579  529 € Expressangebot holen
09.06 - 14.06.2021 579  529 € Expressangebot holen
10.06 - 15.06.2021 579  529 € Expressangebot holen
11.06 - 16.06.2021 579  529 € Expressangebot holen
13.06 - 18.06.2021 579  529 € Expressangebot holen
14.06 - 19.06.2021 579  529 € Expressangebot holen
15.06 - 20.06.2021 579  529 € Expressangebot holen
16.06 - 21.06.2021 579  529 € Expressangebot holen
17.06 - 22.06.2021 579  529 € Expressangebot holen
18.06 - 23.06.2021 599  539 € Expressangebot holen
20.06 - 25.06.2021 619  559 € Expressangebot holen
21.06 - 26.06.2021 639  579 € Expressangebot holen
22.06 - 27.06.2021 649  589 € Expressangebot holen
23.06 - 28.06.2021 649  589 € Expressangebot holen
24.06 - 29.06.2021 649  589 € Expressangebot holen
25.06 - 30.06.2021 649  589 € Expressangebot holen
27.06 - 02.07.2021 649  589 € Expressangebot holen
28.06 - 03.07.2021 649  589 € Expressangebot holen
29.06 - 04.07.2021 649  589 € Expressangebot holen
30.06 - 05.07.2021 649  589 € Expressangebot holen
Juli
01.07 - 06.07.2021 649  589 € Expressangebot holen
02.07 - 07.07.2021 649  589 € Expressangebot holen
04.07 - 09.07.2021 649  589 € Expressangebot holen
05.07 - 10.07.2021 649  589 € Expressangebot holen
06.07 - 11.07.2021 649  589 € Expressangebot holen
07.07 - 12.07.2021 649  589 € Expressangebot holen
08.07 - 13.07.2021 649  589 € Expressangebot holen
09.07 - 14.07.2021 649  589 € Expressangebot holen
11.07 - 16.07.2021 649  589 € Expressangebot holen
12.07 - 17.07.2021 669  599 € Expressangebot holen
13.07 - 18.07.2021 679  609 € Expressangebot holen
14.07 - 19.07.2021 699  629 € Expressangebot holen
15.07 - 20.07.2021 719  639 € Expressangebot holen
16.07 - 21.07.2021 729  649 € Expressangebot holen
18.07 - 23.07.2021 729  649 € Expressangebot holen
19.07 - 24.07.2021 729  649 € Expressangebot holen
20.07 - 25.07.2021 729  649 € Expressangebot holen
21.07 - 26.07.2021 729  649 € Expressangebot holen
22.07 - 27.07.2021 729  649 € Expressangebot holen
23.07 - 28.07.2021 729  649 € Expressangebot holen
25.07 - 30.07.2021 729  649 € Expressangebot holen
26.07 - 31.07.2021 729  649 € Expressangebot holen
27.07 - 01.08.2021 729  649 € Expressangebot holen
28.07 - 02.08.2021 729  649 € Expressangebot holen
29.07 - 03.08.2021 729  649 € Expressangebot holen
30.07 - 04.08.2021 729  649 € Expressangebot holen
August
01.08 - 06.08.2021 729  649 € Expressangebot holen
02.08 - 07.08.2021 729  649 € Expressangebot holen
03.08 - 08.08.2021 729  649 € Expressangebot holen
04.08 - 09.08.2021 729  649 € Expressangebot holen
05.08 - 10.08.2021 729  649 € Expressangebot holen
06.08 - 11.08.2021 729  649 € Expressangebot holen
08.08 - 13.08.2021 729  649 € Expressangebot holen
09.08 - 14.08.2021 729  649 € Expressangebot holen
10.08 - 15.08.2021 729  649 € Expressangebot holen
11.08 - 16.08.2021 729  649 € Expressangebot holen
12.08 - 17.08.2021 729  649 € Expressangebot holen
13.08 - 18.08.2021 729  649 € Expressangebot holen
15.08 - 20.08.2021 729  649 € Expressangebot holen
16.08 - 21.08.2021 729  649 € Expressangebot holen
17.08 - 22.08.2021 729  649 € Expressangebot holen
18.08 - 23.08.2021 729  649 € Expressangebot holen
19.08 - 24.08.2021 729  649 € Expressangebot holen
20.08 - 25.08.2021 709  639 € Expressangebot holen
22.08 - 27.08.2021 679  609 € Expressangebot holen
23.08 - 28.08.2021 659  589 € Expressangebot holen
24.08 - 29.08.2021 639  579 € Expressangebot holen
25.08 - 30.08.2021 639  579 € Expressangebot holen
26.08 - 31.08.2021 639  579 € Expressangebot holen
27.08 - 01.09.2021 639  579 € Expressangebot holen
29.08 - 03.09.2021 639  579 € Expressangebot holen
30.08 - 04.09.2021 639  579 € Expressangebot holen
31.08 - 05.09.2021 639  579 € Expressangebot holen
September
01.09 - 06.09.2021 639  579 € Expressangebot holen
02.09 - 07.09.2021 639  579 € Expressangebot holen
03.09 - 08.09.2021 639  579 € Expressangebot holen
05.09 - 10.09.2021 639  579 € Expressangebot holen
06.09 - 11.09.2021 639  579 € Expressangebot holen
Alle Flugpreise exklusive Transfer, außer bei Goldstrand und Sonnenstrand.
Termin Preis
Preise für 2021
April
30.04 - 07.05.2021 589  539 € Expressangebot holen
Mai
02.05 - 09.05.2021 589  539 € Expressangebot holen
03.05 - 10.05.2021 589  539 € Expressangebot holen
04.05 - 11.05.2021 589  539 € Expressangebot holen
05.05 - 12.05.2021 589  539 € Expressangebot holen
06.05 - 13.05.2021 589  539 € Expressangebot holen
07.05 - 14.05.2021 589  539 € Expressangebot holen
09.05 - 16.05.2021 589  539 € Expressangebot holen
10.05 - 17.05.2021 589  539 € Expressangebot holen
11.05 - 18.05.2021 589  539 € Expressangebot holen
12.05 - 19.05.2021 589  539 € Expressangebot holen
13.05 - 20.05.2021 589  539 € Expressangebot holen
14.05 - 21.05.2021 589  539 € Expressangebot holen
16.05 - 23.05.2021 589  539 € Expressangebot holen
17.05 - 24.05.2021 589  539 € Expressangebot holen
18.05 - 25.05.2021 589  539 € Expressangebot holen
19.05 - 26.05.2021 589  539 € Expressangebot holen
20.05 - 27.05.2021 589  539 € Expressangebot holen
21.05 - 28.05.2021 589  539 € Expressangebot holen
23.05 - 30.05.2021 679  619 € Expressangebot holen
24.05 - 31.05.2021 689  629 € Expressangebot holen
25.05 - 01.06.2021 709  649 € Expressangebot holen
26.05 - 02.06.2021 719  659 € Expressangebot holen
27.05 - 03.06.2021 729  669 € Expressangebot holen
28.05 - 04.06.2021 749  679 € Expressangebot holen
30.05 - 06.06.2021 759  689 € Expressangebot holen
31.05 - 07.06.2021 759  689 € Expressangebot holen
Juni
01.06 - 08.06.2021 679  609 € Expressangebot holen
02.06 - 09.06.2021 679  609 € Expressangebot holen
03.06 - 10.06.2021 679  609 € Expressangebot holen
04.06 - 11.06.2021 679  609 € Expressangebot holen
06.06 - 13.06.2021 679  609 € Expressangebot holen
07.06 - 14.06.2021 679  609 € Expressangebot holen
08.06 - 15.06.2021 679  609 € Expressangebot holen
09.06 - 16.06.2021 679  609 € Expressangebot holen
10.06 - 17.06.2021 679  609 € Expressangebot holen
11.06 - 18.06.2021 679  609 € Expressangebot holen
13.06 - 20.06.2021 679  609 € Expressangebot holen
14.06 - 21.06.2021 679  609 € Expressangebot holen
15.06 - 22.06.2021 679  609 € Expressangebot holen
16.06 - 23.06.2021 699  619 € Expressangebot holen
17.06 - 24.06.2021 709  629 € Expressangebot holen
18.06 - 25.06.2021 729  649 € Expressangebot holen
20.06 - 27.06.2021 749  669 € Expressangebot holen
21.06 - 28.06.2021 769  679 € Expressangebot holen
22.06 - 29.06.2021 779  689 € Expressangebot holen
23.06 - 30.06.2021 779  689 € Expressangebot holen
24.06 - 01.07.2021 779  689 € Expressangebot holen
25.06 - 02.07.2021 779  689 € Expressangebot holen
27.06 - 04.07.2021 779  689 € Expressangebot holen
28.06 - 05.07.2021 779  689 € Expressangebot holen
29.06 - 06.07.2021 779  689 € Expressangebot holen
30.06 - 07.07.2021 779  689 € Expressangebot holen
Juli
01.07 - 08.07.2021 779  689 € Expressangebot holen
02.07 - 09.07.2021 779  689 € Expressangebot holen
04.07 - 11.07.2021 779  689 € Expressangebot holen
05.07 - 12.07.2021 779  689 € Expressangebot holen
06.07 - 13.07.2021 779  689 € Expressangebot holen
07.07 - 14.07.2021 779  689 € Expressangebot holen
08.07 - 15.07.2021 779  689 € Expressangebot holen
09.07 - 16.07.2021 779  689 € Expressangebot holen
11.07 - 18.07.2021 819  719 € Expressangebot holen
12.07 - 19.07.2021 829  729 € Expressangebot holen
13.07 - 20.07.2021 849  739 € Expressangebot holen
14.07 - 21.07.2021 859  759 € Expressangebot holen
15.07 - 22.07.2021 879  769 € Expressangebot holen
16.07 - 23.07.2021 899  779 € Expressangebot holen
18.07 - 25.07.2021 899  779 € Expressangebot holen
19.07 - 26.07.2021 899  779 € Expressangebot holen
20.07 - 27.07.2021 899  779 € Expressangebot holen
21.07 - 28.07.2021 899  779 € Expressangebot holen
22.07 - 29.07.2021 899  779 € Expressangebot holen
23.07 - 30.07.2021 899  779 € Expressangebot holen
25.07 - 01.08.2021 899  779 € Expressangebot holen
26.07 - 02.08.2021 899  779 € Expressangebot holen
27.07 - 03.08.2021 899  779 € Expressangebot holen
28.07 - 04.08.2021 899  779 € Expressangebot holen
29.07 - 05.08.2021 899  779 € Expressangebot holen
30.07 - 06.08.2021 899  779 € Expressangebot holen
August
01.08 - 08.08.2021 899  779 € Expressangebot holen
02.08 - 09.08.2021 899  779 € Expressangebot holen
03.08 - 10.08.2021 899  779 € Expressangebot holen
04.08 - 11.08.2021 899  779 € Expressangebot holen
05.08 - 12.08.2021 899  779 € Expressangebot holen
06.08 - 13.08.2021 899  779 € Expressangebot holen
08.08 - 15.08.2021 899  779 € Expressangebot holen
09.08 - 16.08.2021 899  779 € Expressangebot holen
10.08 - 17.08.2021 899  779 € Expressangebot holen
11.08 - 18.08.2021 899  779 € Expressangebot holen
12.08 - 19.08.2021 899  779 € Expressangebot holen
13.08 - 20.08.2021 899  779 € Expressangebot holen
15.08 - 22.08.2021 899  779 € Expressangebot holen
16.08 - 23.08.2021 899  779 € Expressangebot holen
17.08 - 24.08.2021 899  779 € Expressangebot holen
18.08 - 25.08.2021 879  769 € Expressangebot holen
19.08 - 26.08.2021 859  749 € Expressangebot holen
20.08 - 27.08.2021 839  739 € Expressangebot holen
22.08 - 29.08.2021 809  709 € Expressangebot holen
23.08 - 30.08.2021 789  699 € Expressangebot holen
24.08 - 31.08.2021 769  679 € Expressangebot holen
25.08 - 01.09.2021 769  679 € Expressangebot holen
26.08 - 02.09.2021 769  679 € Expressangebot holen
27.08 - 03.09.2021 769  679 € Expressangebot holen
29.08 - 05.09.2021 769  679 € Expressangebot holen
30.08 - 06.09.2021 769  679 € Expressangebot holen
31.08 - 07.09.2021 769  679 € Expressangebot holen
September
01.09 - 08.09.2021 769  679 € Expressangebot holen
02.09 - 09.09.2021 769  679 € Expressangebot holen
03.09 - 10.09.2021 769  679 € Expressangebot holen
Alle Flugpreise exklusive Transfer, außer bei Goldstrand und Sonnenstrand.
Termin Preis
Preise für 2021
April
30.04 - 14.05.2021 859  749 € Expressangebot holen
Mai
02.05 - 16.05.2021 859  749 € Expressangebot holen
03.05 - 17.05.2021 859  749 € Expressangebot holen
04.05 - 18.05.2021 859  749 € Expressangebot holen
05.05 - 19.05.2021 859  749 € Expressangebot holen
06.05 - 20.05.2021 859  749 € Expressangebot holen
07.05 - 21.05.2021 859  749 € Expressangebot holen
09.05 - 23.05.2021 859  749 € Expressangebot holen
10.05 - 24.05.2021 859  749 € Expressangebot holen
11.05 - 25.05.2021 859  749 € Expressangebot holen
12.05 - 26.05.2021 859  749 € Expressangebot holen
13.05 - 27.05.2021 859  749 € Expressangebot holen
14.05 - 28.05.2021 859  749 € Expressangebot holen
16.05 - 30.05.2021 869  759 € Expressangebot holen
17.05 - 31.05.2021 889  769 € Expressangebot holen
18.05 - 01.06.2021 899  779 € Expressangebot holen
19.05 - 02.06.2021 909  789 € Expressangebot holen
20.05 - 03.06.2021 919  799 € Expressangebot holen
21.05 - 04.06.2021 939  819 € Expressangebot holen
23.05 - 06.06.2021 1039  909 € Expressangebot holen
24.05 - 07.06.2021 1049  919 € Expressangebot holen
25.05 - 08.06.2021 1059  929 € Expressangebot holen
26.05 - 09.06.2021 1079  939 € Expressangebot holen
27.05 - 10.06.2021 1089  949 € Expressangebot holen
28.05 - 11.06.2021 1099  959 € Expressangebot holen
30.05 - 13.06.2021 1119  969 € Expressangebot holen
31.05 - 14.06.2021 1119  969 € Expressangebot holen
Juni
01.06 - 15.06.2021 1039  899 € Expressangebot holen
02.06 - 16.06.2021 1039  899 € Expressangebot holen
03.06 - 17.06.2021 1039  899 € Expressangebot holen
04.06 - 18.06.2021 1039  899 € Expressangebot holen
06.06 - 20.06.2021 1039  899 € Expressangebot holen
07.06 - 21.06.2021 1039  899 € Expressangebot holen
08.06 - 22.06.2021 1039  899 € Expressangebot holen
09.06 - 23.06.2021 1059  909 € Expressangebot holen
10.06 - 24.06.2021 1069  919 € Expressangebot holen
11.06 - 25.06.2021 1079  929 € Expressangebot holen
13.06 - 27.06.2021 1109  959 € Expressangebot holen
14.06 - 28.06.2021 1129  969 € Expressangebot holen
15.06 - 29.06.2021 1139  979 € Expressangebot holen
16.06 - 30.06.2021 1159  989 € Expressangebot holen
17.06 - 01.07.2021 1169  999 € Expressangebot holen
18.06 - 02.07.2021 1179  1009 € Expressangebot holen
20.06 - 04.07.2021 1209  1039 € Expressangebot holen
21.06 - 05.07.2021 1229  1049 € Expressangebot holen
22.06 - 06.07.2021 1239  1059 € Expressangebot holen
23.06 - 07.07.2021 1239  1059 € Expressangebot holen
24.06 - 08.07.2021 1239  1059 € Expressangebot holen
25.06 - 09.07.2021 1239  1059 € Expressangebot holen
27.06 - 11.07.2021 1239  1059 € Expressangebot holen
28.06 - 12.07.2021 1239  1059 € Expressangebot holen
29.06 - 13.07.2021 1239  1059 € Expressangebot holen
30.06 - 14.07.2021 1239  1059 € Expressangebot holen
Juli
01.07 - 15.07.2021 1239  1059 € Expressangebot holen
02.07 - 16.07.2021 1239  1059 € Expressangebot holen
04.07 - 18.07.2021 1269  1079 € Expressangebot holen
05.07 - 19.07.2021 1289  1099 € Expressangebot holen
06.07 - 20.07.2021 1309  1109 € Expressangebot holen
07.07 - 21.07.2021 1319  1119 € Expressangebot holen
08.07 - 22.07.2021 1339  1129 € Expressangebot holen
09.07 - 23.07.2021 1349  1149 € Expressangebot holen
11.07 - 25.07.2021 1389  1169 € Expressangebot holen
12.07 - 26.07.2021 1399  1189 € Expressangebot holen
13.07 - 27.07.2021 1419  1199 € Expressangebot holen
14.07 - 28.07.2021 1429  1209 € Expressangebot holen
15.07 - 29.07.2021 1449  1219 € Expressangebot holen
16.07 - 30.07.2021 1469  1239 € Expressangebot holen
18.07 - 01.08.2021 1469  1239 € Expressangebot holen
19.07 - 02.08.2021 1469  1239 € Expressangebot holen
20.07 - 03.08.2021 1469  1239 € Expressangebot holen
21.07 - 04.08.2021 1469  1239 € Expressangebot holen
22.07 - 05.08.2021 1469  1239 € Expressangebot holen
23.07 - 06.08.2021 1469  1239 € Expressangebot holen
25.07 - 08.08.2021 1469  1239 € Expressangebot holen
26.07 - 09.08.2021 1469  1239 € Expressangebot holen
27.07 - 10.08.2021 1469  1239 € Expressangebot holen
28.07 - 11.08.2021 1469  1239 € Expressangebot holen
29.07 - 12.08.2021 1469  1239 € Expressangebot holen
30.07 - 13.08.2021 1469  1239 € Expressangebot holen
August
01.08 - 15.08.2021 1469  1239 € Expressangebot holen
02.08 - 16.08.2021 1469  1239 € Expressangebot holen
03.08 - 17.08.2021 1469  1239 € Expressangebot holen
04.08 - 18.08.2021 1469  1239 € Expressangebot holen
05.08 - 19.08.2021 1469  1239 € Expressangebot holen
06.08 - 20.08.2021 1469  1239 € Expressangebot holen
08.08 - 22.08.2021 1469  1239 € Expressangebot holen
09.08 - 23.08.2021 1469  1239 € Expressangebot holen
10.08 - 24.08.2021 1469  1239 € Expressangebot holen
11.08 - 25.08.2021 1449  1219 € Expressangebot holen
12.08 - 26.08.2021 1429  1209 € Expressangebot holen
13.08 - 27.08.2021 1409  1189 € Expressangebot holen
15.08 - 29.08.2021 1379  1169 € Expressangebot holen
16.08 - 30.08.2021 1359  1149 € Expressangebot holen
17.08 - 31.08.2021 1339  1139 € Expressangebot holen
18.08 - 01.09.2021 1319  1119 € Expressangebot holen
19.08 - 02.09.2021 1299  1109 € Expressangebot holen
20.08 - 03.09.2021 1289  1089 € Expressangebot holen
22.08 - 05.09.2021 1249  1069 € Expressangebot holen
23.08 - 06.09.2021 1229  1049 € Expressangebot holen
24.08 - 07.09.2021 1219  1039 € Expressangebot holen
25.08 - 08.09.2021 1219  1039 € Expressangebot holen
26.08 - 09.09.2021 1219  1039 € Expressangebot holen
27.08 - 10.09.2021 1219  1039 € Expressangebot holen
Alle Flugpreise exklusive Transfer, außer bei Goldstrand und Sonnenstrand.
Erlebe einen super Urlaub mit FUN-ABI ab 449,00 € und 1.239,00 €.